Retour au catalogue

SL-8 R/B

ActifLEO
NORAD 11546·ROCKET BODY·🇷🇺 Russia

Lancé Sep 25, 1979 depuis Plesetsk Cosmodrome

Loading…

Prochains Passages (prochaines 24 heures)

TLE

FraisSource: Space-Track

Époque: Sep 14, 2026, 13:55 UTC

1 11546U 79084J   26257.58040244  .00000066  00000-0  74438-3 0  9995
2 11546  74.0207 280.2596 0126811 285.3725 251.8237 12.22323429 95778

Suivez SL-8 R/B en temps réel avec AllMySat

Download on the App Store